[Iaude] MPEC T100: 2016 TN18 [a=2.33,e=0.57,i=4.2,H=24.1]

mpec at si.edu mpec at si.edu
Sun Oct 9 10:53:56 EDT 2016


M.P.E.C. 2016-T100                               Issued 2016 Oct.  9, 14:38 UT
 
     The Minor Planet Electronic Circulars contain information on unusual
         minor planets and routine data on comets.  They are published
    on behalf of Division F of the International Astronomical Union by the
          Minor Planet Center, Smithsonian Astrophysical Observatory,
                          Cambridge, MA 02138, U.S.A.

             Prepared using the Tamkin Foundation Computer Network

                              MPC at CFA.HARVARD.EDU
            URL http://www.minorplanetcenter.net/    ISSN 1523-6714


                                   2016 TN18
 
Observations:
     K16T18N* C2016 10 07.49243 02 02 08.992-05 41 24.75         19.8 wLET100F51
     K16T18N  C2016 10 07.50487 02 02 10.405-05 39 31.77         20.0 wLET100F51
     K16T18N  C2016 10 07.51727 02 02 11.819-05 37 39.04         19.6 wLET100F51
     K16T18N  C2016 10 07.52966 02 02 13.243-05 35 46.74         19.5 wLET100F51
     K16T18N KC2016 10 07.94310 02 03 21.84 -04 35 30.8          19.4 RqET100104
     K16T18N KC2016 10 07.94622 02 03 22.19 -04 35 03.9          19.4 RqET100104
     K16T18N KC2016 10 07.94899 02 03 22.50 -04 34 39.8                qET100104
     K16T18N KC2016 10 08.30979702 04 10.15 -03 41 37.6          20.3 RqET100W85
     K16T18N KC2016 10 08.31179102 04 10.34 -03 41 21.0          19.4 RqET100W85
     K16T18N KC2016 10 08.31378302 04 10.56 -03 41 04.5          19.7 RqET100W85
     K16T18N KC2016 10 08.31577302 04 10.77 -03 40 48.0          19.1 RqET100W85
     K16T18N KC2016 10 08.31777402 04 10.99 -03 40 31.3          19.3 RqET100W85
     K16T18N  C2016 10 09.43132 02 06 37.60 -01 18 08.2                oET100926
     K16T18N  C2016 10 09.43351 02 06 37.77 -01 17 52.8                oET100926
     K16T18N  C2016 10 09.43568 02 06 37.99 -01 17 36.5                oET100926
 
Observer details:
104 San Marcello Pistoiese.  Observers P. Bacci, M. Maestripieri.  Measurers
    P. Bacci, L. Tesi, G. Fagioli.  0.60-m f/4 reflector + CCD.
926 Tenagra II Observatory.  Observers M. Schwartz, P. R. Holvorcem.  Measurer
    M. Schwartz.  0.81-m f/7 Ritchey-Chretien + CCD.
F51 Pan-STARRS 1, Haleakala.  Observers B. Gibson, T. Goggia, S. Kahale,
    A. Schultz, M. Willman.  Measurers K. Chambers, S. Chastel, L. Denneau,
    H. Flewelling, M. Huber, E. Lilly, E. Magnier, R. Wainscoat, C. Waters,
    R. Weryk.  1.8-m Ritchey-Chretien + CCD.
W85 Cerro Tololo-LCOGT A.  Observers T. Lister, S. Greenstreet, E. Gomez.
    Measurer T. Lister.  1.0-m f/8 Ritchey-Chretien + CCD.
 
Orbital elements:
2016 TN18                                                Earth MOID = 0.0425 AU
Epoch 2016 July 31.0 TT = JDT 2457600.5                 MPC
M 349.10796              (2000.0)            P               Q
n   0.27790966     Peri.  309.38918     +0.94208629     +0.33319107
a   2.3255925      Node    31.20254     -0.28057657     +0.84539296
e   0.5697585      Incl.    4.22553     -0.18371229     +0.41748586
P   3.55           H   24.1           G   0.15           U   6
Residuals in seconds of arc
161007 F51  0.1-  0.0     161007 104  0.1+  0.1-    161008 W85  0.1+  0.0
161007 F51  0.0   0.0     161007 104  0.1-  0.2+    161008 W85  0.2+  0.1+
161007 F51  0.0   0.1+    161008 W85  0.3+  0.1-    161009 926  0.0   0.3+
161007 F51  0.0   0.0     161008 W85  0.0   0.0     161009 926  0.4-  0.3-
161007 104  0.4+  0.1-    161008 W85  0.1+  0.1-    161009 926  0.0   0.1+

Ephemeris:
2016 TN18                a,e,i = 2.33, 0.57, 4                   q = 1.0006
Date    TT    R. A. (2000) Decl.     Delta      r     Elong.  Phase     V
2016 09 09    15 53 35.3 -54 27 37   0.1022  1.0006    83.4    90.8    22.4
...
2016 09 24    23 03 14.6 -67 51 11   0.04815 1.0213   110.9    66.6    19.9
...
2016 10 02    01 38 58.6 -24 56 04   0.05385 1.0466   147.3    31.1    19.2
...
2016 10 08    02 03 27.9 -04 26 03   0.07650 1.0714   160.0    18.6    19.6
2016 10 09    02 05 46.5 -02 11 02   0.08106 1.0759   161.2    17.4    19.7
2016 10 10    02 07 47.2 -00 10 15   0.08578 1.0806   162.3    16.3    19.8
...
2016 10 16    02 15 35.4 +08 20 01   0.1167  1.1110   167.4    11.3    20.4
...
2016 10 24    02 19 50.5 +14 18 11   0.1632  1.1569   173.3     5.7    20.9
...
2016 11 08    02 22 17.3 +19 02 37   0.2671  1.2559   172.2     6.1    22.2

A. U. Tomatic                (C) Copyright 2016 MPC           M.P.E.C. 2016-T100




More information about the Iaude mailing list